Location: Waco, TX
(31.5480°N, 97.1670°W)
Time: 22:26:57
(UTC-06:00)

ISS - Pass Details

Date: 16 February 2019
Orbit: 403 x 411 km, 51.6° (Epoch: 22 February)

Event Time Altitude Azimuth Distance (km) Brightness Sun altitude
Rises 10:01:01 0° 269° (W) 2,309 -0.4 31.5°
Reaches altitude 10° 10:04:04 10° 301° (WNW) 1,453 -1.4 32.0°
Maximum altitude 10:05:32 12° 327° (NNW) 1,317 -1.6 32.2°
Drops below altitude 10° 10:07:00 10° 354° (N) 1,457 -1.3 32.4°
Sets 10:10:05 0° 26° (NNE) 2,320 -0.1 32.9°
